Location: Hackberry
(29.5783°N, 96.8797°W)
Time: 14:56:13
(UTC+00:00)

Vanguard 2 Rocket - Pass Details

Date: 20 November 2024
Orbit: 554 x 3296 km, 32.9° (Epoch: 30 November)

Event Time Altitude Azimuth Distance (km) Brightness Sun altitude
Exits shadow 10:33:31 32° 213° (SSW) 2,386 8.7 -30.8°
Maximum altitude 10:38:21 60° 148° (SSE) 2,085 8.7 -29.8°
Drops below altitude 10° 10:53:16 10° 74° (ENE) 5,551 11.7 -26.6°
Sets 10:58:26 0° 71° (ENE) 6,880 12.3 -25.5°
